{"data":{"norad_id":67260,"intl_designator":"2025-313N","name":"SITRO-AIS-60","alt_names":[],"object_type":"PAYLOAD","status":"ACTIVE","operator":null,"country":"CIS","launch_date":"2025-12-28","launch_site_code":"VOSTO","launch_vehicle":null,"mission":null,"orbit_class":"UNKNOWN","rcs_meters":null,"size_class":null,"mass_kg":null,"dimensions":null,"purposes":[],"wikipedia_slug":null,"has_3d_model":false,"image_url":null,"decayed_at":null,"tle_current":{"epoch":"2026-05-25T02:46:25.764672Z","epoch_age_seconds":58349,"freshness":"FRESH","line1":"1 67260U 25313N   26145.11557598  .00006190  00000+0  27481-3 0  9994","line2":"2 67260  97.3955 220.0240 0015379  86.8121 273.4874 15.21807243 22431","mean_motion":15.21807243,"eccentricity":0.0015379,"inclination_deg":97.3955,"raan_deg":220.024,"arg_perigee_deg":86.8121,"mean_anomaly_deg":273.4874,"bstar":0.00027481,"rev_number":2243,"period_min":94.624336073028,"perigee_km":489.81094082647,"apogee_km":510.96791240946,"semimajor_km":6878.526426618,"source":"CELESTRAK","updated_at":"2026-05-25T13:38:06.847141Z"}}}